contact:dominique.lefevre@mio.osupytheas.fr, maurice.libes@osupytheas.fr, didier.mallarino@osupytheas.fr
Project:EMSO http://www.emso-fr.org/EMSO-France
Depth: 2436.0 m
Title:EMSO Ligure Ouest : Data MII capteur MICROCAT
DateTime_Computer,Latitude,Longitude,Temperature,Conductivity,Pressure,DateTime_Instrument
DateTime_Computer,Latitude,Longitude,degC,S m-1,dbar,DateTime_Instrument
2021-05-14T00:00:03Z,42.805,6.029,13.2996,4.60009,2470.67,2021-5-14T02:01:14Z
2021-05-14T00:03:06Z,42.805,6.029,13.2998,4.60010,2470.67,2021-5-14T02:04:17Z
2021-05-14T00:06:09Z,42.805,6.029,13.2996,4.60007,2470.684,2021-5-14T02:07:20Z
2021-05-14T00:09:13Z,42.805,6.029,13.2996,4.60012,2470.67,2021-5-14T02:10:24Z
2021-05-14T00:12:16Z,42.805,6.029,13.2996,4.60010,2470.67,2021-5-14T02:13:27Z
2021-05-14T00:15:19Z,42.805,6.029,13.2999,4.60014,2470.624,2021-5-14T02:16:30Z
2021-05-14T00:18:22Z,42.805,6.029,13.2999,4.60010,2470.646,2021-5-14T02:19:33Z
2021-05-14T00:21:25Z,42.805,6.029,13.2997,4.60014,2470.646,2021-5-14T02:22:36Z
2021-05-14T00:24:28Z,42.805,6.029,13.3001,4.60015,2470.624,2021-5-14T02:25:39Z
2021-05-14T00:27:31Z,42.805,6.029,13.2998,4.60015,2470.646,2021-5-14T02:28:42Z
2021-05-14T00:30:34Z,42.805,6.029,13.2997,4.60004,2470.637,2021-5-14T02:31:45Z
2021-05-14T00:33:38Z,42.805,6.029,13.2995,4.60011,2470.67,2021-5-14T02:34:49Z
2021-05-14T00:36:41Z,42.805,6.029,13.2999,4.60014,2470.624,2021-5-14T02:37:52Z
2021-05-14T00:39:44Z,42.805,6.029,13.3002,4.60019,2470.637,2021-5-14T02:40:55Z
2021-05-14T00:42:47Z,42.805,6.029,13.2996,4.60004,2470.6,2021-5-14T02:43:58Z
2021-05-14T00:45:50Z,42.805,6.029,13.2996,4.60011,2470.624,2021-5-14T02:47:01Z
2021-05-14T00:48:53Z,42.805,6.029,13.2998,4.60013,2470.624,2021-5-14T02:50:04Z
2021-05-14T00:51:56Z,42.805,6.029,13.2994,4.60016,2470.6,2021-5-14T02:53:07Z
2021-05-14T00:54:59Z,42.805,6.029,13.2993,4.60014,2470.624,2021-5-14T02:56:10Z
2021-05-14T00:58:03Z,42.805,6.029,13.2996,4.60011,2470.646,2021-5-14T02:59:13Z
2021-05-14T01:01:06Z,42.805,6.029,13.2998,4.60011,2470.646,2021-5-14T03:02:17Z
2021-05-14T01:04:09Z,42.805,6.029,13.3003,4.60010,2470.624,2021-5-14T03:05:20Z
2021-05-14T01:07:12Z,42.805,6.029,13.3002,4.60011,2470.624,2021-5-14T03:08:23Z
2021-05-14T01:10:15Z,42.805,6.029,13.2994,4.60006,2470.661,2021-5-14T03:11:26Z
2021-05-14T01:13:18Z,42.805,6.029,13.2997,4.60013,2470.661,2021-5-14T03:14:29Z
2021-05-14T01:16:21Z,42.805,6.029,13.2996,4.60008,2470.661,2021-5-14T03:17:32Z
2021-05-14T01:19:24Z,42.805,6.029,13.2998,4.60011,2470.637,2021-5-14T03:20:35Z
2021-05-14T01:22:28Z,42.805,6.029,13.3001,4.60024,2470.624,2021-5-14T03:23:38Z
2021-05-14T01:25:31Z,42.805,6.029,13.3003,4.60015,2470.637,2021-5-14T03:26:42Z
2021-05-14T01:28:34Z,42.805,6.029,13.2996,4.60009,2470.624,2021-5-14T03:29:45Z
2021-05-14T01:31:37Z,42.805,6.029,13.2994,4.60015,2470.6,2021-5-14T03:32:48Z
2021-05-14T01:34:40Z,42.805,6.029,13.2996,4.60013,2470.624,2021-5-14T03:35:51Z
2021-05-14T01:37:43Z,42.805,6.029,13.2998,4.60009,2470.637,2021-5-14T03:38:54Z
2021-05-14T01:40:46Z,42.805,6.029,13.3003,4.60011,2470.614,2021-5-14T03:41:57Z
2021-05-14T01:43:49Z,42.805,6.029,13.2998,4.60010,2470.624,2021-5-14T03:45:00Z
2021-05-14T01:46:53Z,42.805,6.029,13.3000,4.60011,2470.637,2021-5-14T03:48:03Z
2021-05-14T01:49:56Z,42.805,6.029,13.2990,4.60007,2470.624,2021-5-14T03:51:07Z
2021-05-14T01:52:59Z,42.805,6.029,13.3000,4.60013,2470.614,2021-5-14T03:54:10Z
2021-05-14T01:56:02Z,42.805,6.029,13.2994,4.60011,2470.624,2021-5-14T03:57:13Z
2021-05-14T01:59:05Z,42.805,6.029,13.3001,4.60011,2470.6,2021-5-14T04:00:16Z
2021-05-14T02:02:08Z,42.805,6.029,13.3003,4.60014,2470.624,2021-5-14T04:03:19Z
2021-05-14T02:05:11Z,42.805,6.029,13.3001,4.60006,2470.6,2021-5-14T04:06:22Z
2021-05-14T02:08:14Z,42.805,6.029,13.2997,4.60011,2470.614,2021-5-14T04:09:25Z
2021-05-14T02:11:18Z,42.805,6.029,13.2998,4.60009,2470.577,2021-5-14T04:12:28Z
2021-05-14T02:14:21Z,42.805,6.029,13.2998,4.60015,2470.577,2021-5-14T04:15:32Z
2021-05-14T02:17:24Z,42.805,6.029,13.2998,4.60009,2470.614,2021-5-14T04:18:35Z
2021-05-14T02:20:27Z,42.805,6.029,13.3000,4.60014,2470.591,2021-5-14T04:21:38Z
2021-05-14T02:23:30Z,42.805,6.029,13.3000,4.60011,2470.6,2021-5-14T04:24:41Z
2021-05-14T02:26:33Z,42.805,6.029,13.2993,4.60016,2470.614,2021-5-14T04:27:44Z
2021-05-14T02:29:36Z,42.805,6.029,13.3000,4.60017,2470.6,2021-5-14T04:30:47Z
2021-05-14T02:32:39Z,42.805,6.029,13.2999,4.60016,2470.6,2021-5-14T04:33:50Z
2021-05-14T02:35:43Z,42.805,6.029,13.3000,4.60017,2470.591,2021-5-14T04:36:53Z
2021-05-14T02:38:46Z,42.805,6.029,13.2998,4.60010,2470.553,2021-5-14T04:39:57Z
2021-05-14T02:41:49Z,42.805,6.029,13.3002,4.60020,2470.614,2021-5-14T04:43:00Z
2021-05-14T02:44:52Z,42.805,6.029,13.2995,4.60016,2470.577,2021-5-14T04:46:03Z
2021-05-14T02:47:55Z,42.805,6.029,13.2997,4.60011,2470.577,2021-5-14T04:49:06Z
2021-05-14T02:50:58Z,42.805,6.029,13.2998,4.60016,2470.553,2021-5-14T04:52:09Z
2021-05-14T02:54:01Z,42.805,6.029,13.3001,4.60014,2470.6,2021-5-14T04:55:12Z
2021-05-14T02:57:04Z,42.805,6.029,13.2995,4.60011,2470.6,2021-5-14T04:58:15Z
2021-05-14T03:00:07Z,42.805,6.029,13.2998,4.60014,2470.577,2021-5-14T05:01:18Z
2021-05-14T03:03:11Z,42.805,6.029,13.3000,4.60010,2470.591,2021-5-14T05:04:22Z
2021-05-14T03:06:14Z,42.805,6.029,13.2998,4.60014,2470.577,2021-5-14T05:07:25Z
2021-05-14T03:09:17Z,42.805,6.029,13.2996,4.60008,2470.567,2021-5-14T05:10:28Z
2021-05-14T03:12:20Z,42.805,6.029,13.3002,4.60014,2470.6,2021-5-14T05:13:31Z
2021-05-14T03:15:23Z,42.805,6.029,13.3001,4.60020,2470.577,2021-5-14T05:16:34Z
2021-05-14T03:18:26Z,42.805,6.029,13.2996,4.60008,2470.577,2021-5-14T05:19:37Z
2021-05-14T03:21:29Z,42.805,6.029,13.3000,4.60011,2470.577,2021-5-14T05:22:40Z
2021-05-14T03:24:32Z,42.805,6.029,13.2996,4.60009,2470.553,2021-5-14T05:25:43Z
2021-05-14T03:27:36Z,42.805,6.029,13.2998,4.60015,2470.577,2021-5-14T05:28:47Z
2021-05-14T03:30:39Z,42.805,6.029,13.2999,4.60011,2470.567,2021-5-14T05:31:50Z
2021-05-14T03:33:42Z,42.805,6.029,13.2995,4.60014,2470.577,2021-5-14T05:34:53Z
2021-05-14T03:36:45Z,42.805,6.029,13.2995,4.60017,2470.614,2021-5-14T05:37:56Z
2021-05-14T03:39:48Z,42.805,6.029,13.2990,4.60010,2470.553,2021-5-14T05:40:59Z
2021-05-14T03:42:51Z,42.805,6.029,13.3001,4.60014,2470.577,2021-5-14T05:44:02Z
2021-05-14T03:45:54Z,42.805,6.029,13.2998,4.60009,2470.591,2021-5-14T05:47:05Z
2021-05-14T03:48:57Z,42.805,6.029,13.2998,4.60012,2470.553,2021-5-14T05:50:08Z
2021-05-14T03:52:01Z,42.805,6.029,13.2994,4.60011,2470.553,2021-5-14T05:53:11Z
2021-05-14T03:55:04Z,42.805,6.029,13.2993,4.60009,2470.591,2021-5-14T05:56:15Z
2021-05-14T03:58:07Z,42.805,6.029,13.2991,4.60011,2470.591,2021-5-14T05:59:18Z
2021-05-14T04:01:10Z,42.805,6.029,13.2998,4.60010,2470.591,2021-5-14T06:02:21Z
2021-05-14T04:04:13Z,42.805,6.029,13.2991,4.60003,2470.553,2021-5-14T06:05:24Z
2021-05-14T04:07:16Z,42.805,6.029,13.2994,4.60015,2470.6,2021-5-14T06:08:27Z
2021-05-14T04:10:19Z,42.805,6.029,13.3000,4.60016,2470.567,2021-5-14T06:11:30Z
2021-05-14T04:13:22Z,42.805,6.029,13.2995,4.60008,2470.6,2021-5-14T06:14:33Z
2021-05-14T04:16:26Z,42.805,6.029,13.2998,4.60003,2470.6,2021-5-14T06:17:36Z
2021-05-14T04:19:29Z,42.805,6.029,13.2994,4.60009,2470.577,2021-5-14T06:20:40Z
2021-05-14T04:22:32Z,42.805,6.029,13.2996,4.60011,2470.577,2021-5-14T06:23:43Z
2021-05-14T04:25:35Z,42.805,6.029,13.2996,4.60016,2470.614,2021-5-14T06:26:46Z
2021-05-14T04:28:38Z,42.805,6.029,13.2998,4.60008,2470.577,2021-5-14T06:29:49Z
2021-05-14T04:31:41Z,42.805,6.029,13.2992,4.60011,2470.6,2021-5-14T06:32:52Z
2021-05-14T04:34:44Z,42.805,6.029,13.2998,4.60020,2470.6,2021-5-14T06:35:55Z
2021-05-14T04:37:47Z,42.805,6.029,13.2999,4.60021,2470.577,2021-5-14T06:38:58Z
2021-05-14T04:40:51Z,42.805,6.029,13.2992,4.60009,2470.614,2021-5-14T06:42:01Z
2021-05-14T04:43:54Z,42.805,6.029,13.2993,4.60010,2470.646,2021-5-14T06:45:05Z
2021-05-14T04:46:57Z,42.805,6.029,13.2996,4.60008,2470.614,2021-5-14T06:48:08Z
2021-05-14T04:50:00Z,42.805,6.029,13.3000,4.60016,2470.6,2021-5-14T06:51:11Z
2021-05-14T04:53:03Z,42.805,6.029,13.2996,4.60014,2470.6,2021-5-14T06:54:14Z
2021-05-14T04:56:06Z,42.805,6.029,13.2996,4.60012,2470.614,2021-5-14T06:57:17Z
2021-05-14T04:59:09Z,42.805,6.029,13.2993,4.60004,2470.614,2021-5-14T07:00:20Z
2021-05-14T05:02:12Z,42.805,6.029,13.2994,4.60011,2470.6,2021-5-14T07:03:23Z
2021-05-14T05:05:16Z,42.805,6.029,13.2993,4.60009,2470.614,2021-5-14T07:06:26Z
2021-05-14T05:08:19Z,42.805,6.029,13.2993,4.60007,2470.637,2021-5-14T07:09:30Z
2021-05-14T05:11:22Z,42.805,6.029,13.2993,4.60011,2470.614,2021-5-14T07:12:33Z
2021-05-14T05:14:25Z,42.805,6.029,13.2996,4.60014,2470.6,2021-5-14T07:15:36Z
2021-05-14T05:17:28Z,42.805,6.029,13.2998,4.60008,2470.637,2021-5-14T07:18:39Z
2021-05-14T05:20:31Z,42.805,6.029,13.2995,4.60015,2470.624,2021-5-14T07:21:42Z
2021-05-14T05:23:34Z,42.805,6.029,13.2998,4.60014,2470.637,2021-5-14T07:24:45Z
2021-05-14T05:26:37Z,42.805,6.029,13.2993,4.60007,2470.637,2021-5-14T07:27:48Z
2021-05-14T05:29:41Z,42.805,6.029,13.2992,4.60011,2470.646,2021-5-14T07:30:51Z
2021-05-14T05:32:44Z,42.805,6.029,13.2992,4.60009,2470.637,2021-5-14T07:33:55Z
2021-05-14T05:35:47Z,42.805,6.029,13.2992,4.60003,2470.614,2021-5-14T07:36:58Z
2021-05-14T05:38:50Z,42.805,6.029,13.2996,4.60003,2470.646,2021-5-14T07:40:01Z
2021-05-14T05:41:53Z,42.805,6.029,13.2996,4.60008,2470.661,2021-5-14T07:43:04Z
2021-05-14T05:44:56Z,42.805,6.029,13.2994,4.60012,2470.661,2021-5-14T07:46:07Z
2021-05-14T05:47:59Z,42.805,6.029,13.2995,4.60003,2470.646,2021-5-14T07:49:10Z
2021-05-14T05:51:02Z,42.805,6.029,13.2995,4.60006,2470.646,2021-5-14T07:52:13Z
2021-05-14T05:54:06Z,42.805,6.029,13.2996,4.60013,2470.637,2021-5-14T07:55:16Z
2021-05-14T05:57:09Z,42.805,6.029,13.2998,4.60010,2470.661,2021-5-14T07:58:20Z
2021-05-14T06:00:12Z,42.805,6.029,13.2991,4.60006,2470.624,2021-5-14T08:01:23Z
2021-05-14T06:03:15Z,42.805,6.029,13.2990,4.60011,2470.624,2021-5-14T08:04:26Z
2021-05-14T06:06:18Z,42.805,6.029,13.2991,4.60008,2470.661,2021-5-14T08:07:29Z
2021-05-14T06:09:21Z,42.805,6.029,13.2996,4.60002,2470.67,2021-5-14T08:10:32Z
2021-05-14T06:12:24Z,42.805,6.029,13.2993,4.60005,2470.646,2021-5-14T08:13:35Z
2021-05-14T06:15:27Z,42.805,6.029,13.2991,4.60008,2470.646,2021-5-14T08:16:38Z
2021-05-14T06:18:30Z,42.805,6.029,13.2995,4.60011,2470.67,2021-5-14T08:19:41Z
2021-05-14T06:21:34Z,42.805,6.029,13.2991,4.60006,2470.661,2021-5-14T08:22:45Z
2021-05-14T06:24:37Z,42.805,6.029,13.2993,4.60008,2470.67,2021-5-14T08:25:48Z
2021-05-14T06:27:40Z,42.805,6.029,13.2995,4.60012,2470.67,2021-5-14T08:28:51Z
2021-05-14T06:30:43Z,42.805,6.029,13.3000,4.60014,2470.661,2021-5-14T08:31:54Z
2021-05-14T06:33:46Z,42.805,6.029,13.2991,4.60007,2470.67,2021-5-14T08:34:57Z
2021-05-14T06:36:49Z,42.805,6.029,13.2991,4.60007,2470.707,2021-5-14T08:38:00Z
2021-05-14T06:39:52Z,42.805,6.029,13.2991,4.60010,2470.693,2021-5-14T08:41:03Z
2021-05-14T06:42:55Z,42.805,6.029,13.2994,4.60002,2470.684,2021-5-14T08:44:06Z
2021-05-14T06:45:59Z,42.805,6.029,13.2990,4.60005,2470.67,2021-5-14T08:47:10Z
2021-05-14T06:49:02Z,42.805,6.029,13.2995,4.60005,2470.707,2021-5-14T08:50:13Z
2021-05-14T06:52:05Z,42.805,6.029,13.2993,4.60007,2470.693,2021-5-14T08:53:16Z
2021-05-14T06:55:08Z,42.805,6.029,13.2993,4.60011,2470.67,2021-5-14T08:56:19Z
2021-05-14T06:58:11Z,42.805,6.029,13.2992,4.60006,2470.707,2021-5-14T08:59:22Z
2021-05-14T07:01:14Z,42.805,6.029,13.2996,4.60005,2470.684,2021-5-14T09:02:25Z
2021-05-14T07:04:17Z,42.805,6.029,13.2991,4.60009,2470.693,2021-5-14T09:05:28Z
2021-05-14T07:07:20Z,42.805,6.029,13.2997,4.60009,2470.73,2021-5-14T09:08:31Z
2021-05-14T07:10:24Z,42.805,6.029,13.2993,4.60001,2470.707,2021-5-14T09:11:34Z
2021-05-14T07:13:27Z,42.805,6.029,13.2991,4.60006,2470.693,2021-5-14T09:14:38Z
2021-05-14T07:16:30Z,42.805,6.029,13.2992,4.60010,2470.67,2021-5-14T09:17:41Z
2021-05-14T07:19:33Z,42.805,6.029,13.2994,4.60009,2470.693,2021-5-14T09:20:44Z
2021-05-14T07:22:36Z,42.805,6.029,13.2991,4.60008,2470.717,2021-5-14T09:23:47Z
2021-05-14T07:25:39Z,42.805,6.029,13.2993,4.60005,2470.693,2021-5-14T09:26:50Z
2021-05-14T07:28:42Z,42.805,6.029,13.2995,4.60008,2470.684,2021-5-14T09:29:53Z
2021-05-14T07:31:45Z,42.805,6.029,13.2994,4.60003,2470.67,2021-5-14T09:32:56Z
2021-05-14T07:34:49Z,42.805,6.029,13.2993,4.60004,2470.717,2021-5-14T09:36:00Z
2021-05-14T07:37:52Z,42.805,6.029,13.2995,4.60006,2470.684,2021-5-14T09:39:03Z
2021-05-14T07:40:55Z,42.805,6.029,13.2992,4.60006,2470.717,2021-5-14T09:42:06Z
2021-05-14T07:43:58Z,42.805,6.029,13.2994,4.60005,2470.717,2021-5-14T09:45:09Z
2021-05-14T07:47:01Z,42.805,6.029,13.2995,4.60005,2470.693,2021-5-14T09:48:12Z
2021-05-14T07:50:04Z,42.805,6.029,13.2991,4.60006,2470.73,2021-5-14T09:51:15Z
2021-05-14T07:53:07Z,42.805,6.029,13.2990,4.60008,2470.67,2021-5-14T09:54:18Z
2021-05-14T07:56:10Z,42.805,6.029,13.2991,4.60009,2470.693,2021-5-14T09:57:21Z
2021-05-14T07:59:14Z,42.805,6.029,13.2991,4.60002,2470.693,2021-5-14T10:00:24Z
2021-05-14T08:02:17Z,42.805,6.029,13.2993,4.60009,2470.693,2021-5-14T10:03:28Z
2021-05-14T08:05:20Z,42.805,6.029,13.2994,4.60009,2470.74,2021-5-14T10:06:31Z
2021-05-14T08:08:23Z,42.805,6.029,13.2996,4.60008,2470.717,2021-5-14T10:09:34Z
2021-05-14T08:11:26Z,42.805,6.029,13.2998,4.60010,2470.717,2021-5-14T10:12:37Z
2021-05-14T08:14:29Z,42.805,6.029,13.2992,4.60008,2470.693,2021-5-14T10:15:40Z
2021-05-14T08:17:32Z,42.805,6.029,13.2998,4.60014,2470.717,2021-5-14T10:18:43Z
2021-05-14T08:20:35Z,42.805,6.029,13.2995,4.60006,2470.73,2021-5-14T10:21:46Z
2021-05-14T08:23:39Z,42.805,6.029,13.2990,4.60003,2470.707,2021-5-14T10:24:49Z
2021-05-14T08:26:42Z,42.805,6.029,13.2991,4.60000,2470.717,2021-5-14T10:27:53Z
2021-05-14T08:29:45Z,42.805,6.029,13.2998,4.60009,2470.74,2021-5-14T10:30:56Z
2021-05-14T08:32:48Z,42.805,6.029,13.2996,4.60011,2470.693,2021-5-14T10:33:59Z
2021-05-14T08:35:51Z,42.805,6.029,13.2993,4.60003,2470.717,2021-5-14T10:37:02Z
2021-05-14T08:38:54Z,42.805,6.029,13.2995,4.60004,2470.73,2021-5-14T10:40:05Z
2021-05-14T08:41:57Z,42.805,6.029,13.2993,4.60006,2470.717,2021-5-14T10:43:08Z
2021-05-14T08:45:00Z,42.805,6.029,13.2997,4.60011,2470.693,2021-5-14T10:46:11Z
2021-05-14T08:48:04Z,42.805,6.029,13.2998,4.60009,2470.717,2021-5-14T10:49:15Z
2021-05-14T08:51:07Z,42.805,6.029,13.2993,4.60009,2470.693,2021-5-14T10:52:18Z
2021-05-14T08:54:10Z,42.805,6.029,13.2999,4.60009,2470.693,2021-5-14T10:55:21Z
2021-05-14T08:57:13Z,42.805,6.029,13.2995,4.60010,2470.67,2021-5-14T10:58:24Z
2021-05-14T09:00:16Z,42.805,6.029,13.2998,4.60009,2470.707,2021-5-14T11:01:27Z
2021-05-14T09:03:19Z,42.805,6.029,13.2995,4.60004,2470.67,2021-5-14T11:04:30Z
2021-05-14T09:06:22Z,42.805,6.029,13.2999,4.60012,2470.693,2021-5-14T11:07:33Z
2021-05-14T09:09:25Z,42.805,6.029,13.2993,4.60009,2470.717,2021-5-14T11:10:36Z
2021-05-14T09:12:29Z,42.805,6.029,13.2998,4.60010,2470.67,2021-5-14T11:13:40Z
2021-05-14T09:15:32Z,42.805,6.029,13.2989,4.60003,2470.717,2021-5-14T11:16:43Z
2021-05-14T09:18:35Z,42.805,6.029,13.2995,4.60008,2470.646,2021-5-14T11:19:46Z
2021-05-14T09:21:38Z,42.805,6.029,13.2996,4.60014,2470.707,2021-5-14T11:22:49Z
2021-05-14T09:24:41Z,42.805,6.029,13.2996,4.60006,2470.717,2021-5-14T11:25:52Z
2021-05-14T09:27:44Z,42.805,6.029,13.2998,4.60007,2470.684,2021-5-14T11:28:55Z
2021-05-14T09:30:47Z,42.805,6.029,13.2996,4.60005,2470.693,2021-5-14T11:31:58Z
2021-05-14T09:33:51Z,42.805,6.029,13.2993,4.60006,2470.707,2021-5-14T11:35:01Z
2021-05-14T09:36:54Z,42.805,6.029,13.2996,4.60005,2470.693,2021-5-14T11:38:05Z
2021-05-14T09:39:57Z,42.805,6.029,13.2998,4.60011,2470.707,2021-5-14T11:41:08Z
2021-05-14T09:43:00Z,42.805,6.029,13.2995,4.60006,2470.67,2021-5-14T11:44:11Z
2021-05-14T09:46:03Z,42.805,6.029,13.2997,4.60005,2470.646,2021-5-14T11:47:14Z
2021-05-14T09:49:06Z,42.805,6.029,13.2995,4.59999,2470.67,2021-5-14T11:50:17Z
2021-05-14T09:52:09Z,42.805,6.029,13.2998,4.60004,2470.661,2021-5-14T11:53:20Z
2021-05-14T09:55:12Z,42.805,6.029,13.3000,4.60009,2470.684,2021-5-14T11:56:23Z
2021-05-14T09:58:16Z,42.805,6.029,13.2997,4.60009,2470.67,2021-5-14T11:59:26Z
2021-05-14T10:01:19Z,42.805,6.029,13.2994,4.60002,2470.646,2021-5-14T12:02:30Z
2021-05-14T10:04:22Z,42.805,6.029,13.2993,4.60008,2470.646,2021-5-14T12:05:33Z
2021-05-14T10:07:25Z,42.805,6.029,13.2996,4.60005,2470.661,2021-5-14T12:08:36Z
2021-05-14T10:10:28Z,42.805,6.029,13.2995,4.60004,2470.637,2021-5-14T12:11:39Z
2021-05-14T10:13:31Z,42.805,6.029,13.2997,4.60008,2470.646,2021-5-14T12:14:42Z
2021-05-14T10:16:34Z,42.805,6.029,13.2993,4.60003,2470.67,2021-5-14T12:17:45Z
2021-05-14T10:19:37Z,42.805,6.029,13.2996,4.60003,2470.646,2021-5-14T12:20:48Z
2021-05-14T10:22:41Z,42.805,6.029,13.2994,4.60006,2470.624,2021-5-14T12:23:52Z
2021-05-14T10:25:44Z,42.805,6.029,13.2994,4.60009,2470.624,2021-5-14T12:26:55Z
2021-05-14T10:28:47Z,42.805,6.029,13.2999,4.60003,2470.67,2021-5-14T12:29:58Z
2021-05-14T10:31:50Z,42.805,6.029,13.2993,4.60009,2470.693,2021-5-14T12:33:01Z
2021-05-14T10:34:53Z,42.805,6.029,13.3000,4.60008,2470.646,2021-5-14T12:36:04Z
2021-05-14T10:37:56Z,42.805,6.029,13.2996,4.60011,2470.624,2021-5-14T12:39:07Z
2021-05-14T10:40:59Z,42.805,6.029,13.2996,4.60006,2470.646,2021-5-14T12:42:10Z
2021-05-14T10:44:02Z,42.805,6.029,13.2999,4.60012,2470.661,2021-5-14T12:45:13Z
2021-05-14T10:47:06Z,42.805,6.029,13.2996,4.60010,2470.624,2021-5-14T12:48:17Z
2021-05-14T10:50:09Z,42.805,6.029,13.2991,4.60005,2470.637,2021-5-14T12:51:20Z
2021-05-14T10:53:12Z,42.805,6.029,13.2996,4.60006,2470.646,2021-5-14T12:54:23Z
2021-05-14T10:56:15Z,42.805,6.029,13.2994,4.60009,2470.661,2021-5-14T12:57:26Z
2021-05-14T10:59:18Z,42.805,6.029,13.2993,4.60005,2470.637,2021-5-14T13:00:29Z
2021-05-14T11:02:21Z,42.805,6.029,13.2996,4.60005,2470.646,2021-5-14T13:03:32Z
2021-05-14T11:05:24Z,42.805,6.029,13.2996,4.60008,2470.6,2021-5-14T13:06:35Z
2021-05-14T11:08:27Z,42.805,6.029,13.2996,4.60004,2470.661,2021-5-14T13:09:38Z
2021-05-14T11:11:31Z,42.805,6.029,13.2993,4.60008,2470.624,2021-5-14T13:12:42Z
2021-05-14T11:14:34Z,42.805,6.029,13.2995,4.60003,2470.624,2021-5-14T13:15:45Z
2021-05-14T11:17:37Z,42.805,6.029,13.2993,4.60006,2470.637,2021-5-14T13:18:48Z
2021-05-14T11:20:40Z,42.805,6.029,13.2992,4.60003,2470.624,2021-5-14T13:21:51Z
2021-05-14T11:23:43Z,42.805,6.029,13.2996,4.60004,2470.61,2021-5-14T13:24:54Z
2021-05-14T11:26:46Z,42.805,6.029,13.2996,4.60006,2470.624,2021-5-14T13:27:57Z
2021-05-14T11:29:49Z,42.805,6.029,13.2995,4.60004,2470.614,2021-5-14T13:31:00Z
2021-05-14T11:32:53Z,42.805,6.029,13.2995,4.60007,2470.624,2021-5-14T13:34:03Z
2021-05-14T11:35:56Z,42.805,6.029,13.2995,4.60005,2470.661,2021-5-14T13:37:07Z
2021-05-14T11:38:59Z,42.805,6.029,13.2993,4.60010,2470.637,2021-5-14T13:40:10Z
2021-05-14T11:42:02Z,42.805,6.029,13.2999,4.60007,2470.614,2021-5-14T13:43:13Z
2021-05-14T11:45:05Z,42.805,6.029,13.2998,4.60004,2470.637,2021-5-14T13:46:16Z
2021-05-14T11:48:08Z,42.805,6.029,13.2991,4.60004,2470.614,2021-5-14T13:49:19Z
2021-05-14T11:51:11Z,42.805,6.029,13.2996,4.60007,2470.586,2021-5-14T13:52:22Z
2021-05-14T11:54:14Z,42.805,6.029,13.2996,4.60008,2470.6,2021-5-14T13:55:25Z
2021-05-14T11:57:17Z,42.805,6.029,13.2998,4.60014,2470.624,2021-5-14T13:58:28Z
2021-05-14T12:00:21Z,42.805,6.029,13.2996,4.60004,2470.614,2021-5-14T14:01:32Z
2021-05-14T12:03:24Z,42.805,6.029,13.2997,4.60014,2470.577,2021-5-14T14:04:35Z
2021-05-14T12:06:27Z,42.805,6.029,13.2996,4.60009,2470.624,2021-5-14T14:07:38Z
2021-05-14T12:09:30Z,42.805,6.029,13.2995,4.60001,2470.6,2021-5-14T14:10:41Z
2021-05-14T12:12:33Z,42.805,6.029,13.2995,4.60009,2470.591,2021-5-14T14:13:44Z
2021-05-14T12:15:36Z,42.805,6.029,13.2995,4.60004,2470.6,2021-5-14T14:16:47Z
2021-05-14T12:18:39Z,42.805,6.029,13.2997,4.60002,2470.6,2021-5-14T14:19:50Z
2021-05-14T12:21:43Z,42.805,6.029,13.2998,4.60006,2470.6,2021-5-14T14:22:53Z
2021-05-14T12:24:46Z,42.805,6.029,13.2998,4.60008,2470.591,2021-5-14T14:25:57Z
2021-05-14T12:27:49Z,42.805,6.029,13.2998,4.60006,2470.6,2021-5-14T14:29:00Z
2021-05-14T12:30:52Z,42.805,6.029,13.2997,4.60009,2470.614,2021-5-14T14:32:03Z
2021-05-14T12:33:55Z,42.805,6.029,13.2998,4.60011,2470.6,2021-5-14T14:35:06Z
2021-05-14T12:36:58Z,42.805,6.029,13.2993,4.60005,2470.591,2021-5-14T14:38:09Z
2021-05-14T12:40:01Z,42.805,6.029,13.2996,4.60003,2470.6,2021-5-14T14:41:12Z
2021-05-14T12:43:04Z,42.805,6.029,13.2999,4.60003,2470.577,2021-5-14T14:44:15Z
2021-05-14T12:46:08Z,42.805,6.029,13.2997,4.60006,2470.577,2021-5-14T14:47:18Z
2021-05-14T12:49:11Z,42.805,6.029,13.2995,4.60003,2470.553,2021-5-14T14:50:22Z
2021-05-14T12:52:14Z,42.805,6.029,13.2997,4.60006,2470.614,2021-5-14T14:53:25Z
2021-05-14T12:55:17Z,42.805,6.029,13.2997,4.60004,2470.567,2021-5-14T14:56:28Z
2021-05-14T12:58:20Z,42.805,6.029,13.2993,4.60005,2470.567,2021-5-14T14:59:31Z
2021-05-14T13:01:23Z,42.805,6.029,13.2993,4.60004,2470.53,2021-5-14T15:02:34Z
2021-05-14T13:04:26Z,42.805,6.029,13.2998,4.60006,2470.577,2021-5-14T15:05:37Z
2021-05-14T13:07:29Z,42.805,6.029,13.3000,4.60007,2470.577,2021-5-14T15:08:40Z
2021-05-14T13:10:33Z,42.805,6.029,13.2996,4.60004,2470.577,2021-5-14T15:11:44Z
2021-05-14T13:13:36Z,42.805,6.029,13.2995,4.60003,2470.577,2021-5-14T15:14:47Z
2021-05-14T13:16:39Z,42.805,6.029,13.2994,4.60003,2470.591,2021-5-14T15:17:50Z
2021-05-14T13:19:42Z,42.805,6.029,13.2993,4.60004,2470.553,2021-5-14T15:20:53Z
2021-05-14T13:22:45Z,42.805,6.029,13.2999,4.60005,2470.577,2021-5-14T15:23:56Z
2021-05-14T13:25:48Z,42.805,6.029,13.2999,4.60003,2470.6,2021-5-14T15:26:59Z
2021-05-14T13:28:51Z,42.805,6.029,13.2999,4.60004,2470.53,2021-5-14T15:30:02Z
2021-05-14T13:31:54Z,42.805,6.029,13.2993,4.60000,2470.567,2021-5-14T15:33:05Z
2021-05-14T13:34:58Z,42.805,6.029,13.2998,4.60014,2470.591,2021-5-14T15:36:09Z
2021-05-14T13:38:01Z,42.805,6.029,13.2997,4.60005,2470.553,2021-5-14T15:39:12Z
2021-05-14T13:41:04Z,42.805,6.029,13.2999,4.60007,2470.567,2021-5-14T15:42:15Z
2021-05-14T13:44:07Z,42.805,6.029,13.2991,4.60010,2470.553,2021-5-14T15:45:18Z
2021-05-14T13:47:10Z,42.805,6.029,13.2999,4.60009,2470.577,2021-5-14T15:48:21Z
2021-05-14T13:50:13Z,42.805,6.029,13.2993,4.60004,2470.53,2021-5-14T15:51:24Z
2021-05-14T13:53:16Z,42.805,6.029,13.2995,4.60011,2470.553,2021-5-14T15:54:27Z
2021-05-14T13:56:19Z,42.805,6.029,13.2997,4.60007,2470.567,2021-5-14T15:57:30Z
2021-05-14T13:59:23Z,42.805,6.029,13.2996,4.60006,2470.591,2021-5-14T16:00:34Z
2021-05-14T14:02:26Z,42.805,6.029,13.2992,4.60003,2470.53,2021-5-14T16:03:37Z
2021-05-14T14:05:29Z,42.805,6.029,13.2995,4.60003,2470.567,2021-5-14T16:06:40Z
2021-05-14T14:08:32Z,42.805,6.029,13.2996,4.60003,2470.553,2021-5-14T16:09:43Z
2021-05-14T14:11:35Z,42.805,6.029,13.2997,4.60003,2470.567,2021-5-14T16:12:46Z
2021-05-14T14:14:38Z,42.805,6.029,13.2994,4.60014,2470.53,2021-5-14T16:15:49Z
2021-05-14T14:17:41Z,42.805,6.029,13.2995,4.60006,2470.567,2021-5-14T16:18:52Z
2021-05-14T14:20:45Z,42.805,6.029,13.2995,4.60010,2470.567,2021-5-14T16:21:55Z
2021-05-14T14:23:48Z,42.805,6.029,13.2994,4.60003,2470.553,2021-5-14T16:24:59Z
2021-05-14T14:26:51Z,42.805,6.029,13.2998,4.60003,2470.53,2021-5-14T16:28:02Z
2021-05-14T14:29:54Z,42.805,6.029,13.2994,4.60002,2470.553,2021-5-14T16:31:05Z
2021-05-14T14:32:57Z,42.805,6.029,13.2998,4.60005,2470.53,2021-5-14T16:34:08Z
2021-05-14T14:36:00Z,42.805,6.029,13.2998,4.60009,2470.553,2021-5-14T16:37:11Z
2021-05-14T14:39:03Z,42.805,6.029,13.2993,4.60013,2470.567,2021-5-14T16:40:14Z
2021-05-14T14:42:06Z,42.805,6.029,13.2993,4.60008,2470.553,2021-5-14T16:43:17Z
2021-05-14T14:45:10Z,42.805,6.029,13.2998,4.60013,2470.553,2021-5-14T16:46:20Z
2021-05-14T14:48:13Z,42.805,6.029,13.2991,4.60005,2470.53,2021-5-14T16:49:24Z
2021-05-14T14:51:16Z,42.805,6.029,13.2996,4.60005,2470.553,2021-5-14T16:52:27Z
2021-05-14T14:54:19Z,42.805,6.029,13.3000,4.60017,2470.53,2021-5-14T16:55:30Z
2021-05-14T14:57:22Z,42.805,6.029,13.2996,4.60011,2470.53,2021-5-14T16:58:33Z
2021-05-14T15:00:25Z,42.805,6.029,13.2993,4.60013,2470.577,2021-5-14T17:01:36Z
2021-05-14T15:03:28Z,42.805,6.029,13.2993,4.60004,2470.53,2021-5-14T17:04:39Z
2021-05-14T15:06:31Z,42.805,6.029,13.2993,4.60004,2470.544,2021-5-14T17:07:42Z
2021-05-14T15:09:35Z,42.805,6.029,13.2996,4.60004,2470.507,2021-5-14T17:10:45Z
2021-05-14T15:12:38Z,42.805,6.029,13.2993,4.60004,2470.53,2021-5-14T17:13:49Z